Location: Unspecified
(50.7693°N, 0.0000°E)
Time: 03:11:19
(UTC+00:00)

A-11 Canister half - Pass Details

Date: 24 June 2019
Orbit: 1526 x 1683 km, 47.3° (Epoch: 15 July)

Event Time Altitude Azimuth Distance (km) Brightness Sun altitude
Exits shadow 02:06:13 - 176° (S) 4,203 10.8 -10.9°
Reaches altitude 10° 02:08:18 10° 167° (SSE) 3,763 10.6 -10.8°
Maximum altitude 02:14:00 18° 129° (SE) 3,153 10.6 -10.3°
Drops below altitude 10° 02:19:38 10° 91° (E) 3,715 11.4 -9.9°
Sets 02:23:56 0° 74° (ENE) 4,688 12.4 -9.5°
